Wind_Speed
43 44 46 46 47 47 47 48 49 49 50 50 50 51 51 51 51 51 51 51 52 52 53 54 54 55 57 57 57 58 58 58 59 59 60 60 60 60
44 45 45 46 46 46 47 48 49 50 50 50 51 51 51 51 51 52 53 53 54 54 55 56 58 58 59 59 60 60 60 61 61 61 61 61 61 61
44 45 46 47 47 47 48 48 49 50 51 50 51 51 51 51 51 52 54 55 56 57 58 59 60 60 60 60 61 62 62 62 62 62 63 63 64 64
44 46 48 49 49 48 48 48 49 50 50 50 51 51 51 51 52 53 54 55 57 58 59 60 61 61 61 62 62 62 63 63 63 64 64 65 66 66
45 46 49 50 49 49 49 49 49 50 50 50 51 52 52 53 54 54 55 56 57 58 59 60 60 61 62 62 62 63 63 64 64 65 65 66 67 67
46 47 49 49 49 49 49 49 50 50 50 51 52 53 54 55 55 55 56 56 57 58 59 59 60 60 61 62 62 63 63 64 65 66 66 67 67 68
47 47 48 48 48 49 49 50 51 52 52 53 53 53 55 55 56 56 56 56 57 57 58 58 59 59 60 60 62 63 64 65 66 66 66 66 66 67
47 47 47 48 49 49 50 50 51 53 54 54 54 54 55 56 56 56 56 56 56 56 57 57 58 59 60 61 63 64 65 65 65 65 65 65 65 64
45 46 46 48 49 50 51 52 53 53 54 54 54 54 55 55 55 55 55 55 56 57 58 57 58 59 61 62 63 64 65 64 64 63 63 63 62 61
45 46 47 48 50 51 52 53 53 53 53 54 54 54 54 53 54 55 55 56 56 57 58 58 59 60 61 62 63 63 63 62 61 61 60 59 59 58
47 47 48 49 50 51 52 52 52 52 53 53 53 53 53 53 54 55 55 56 56 57 58 59 60 60 60 60 60 60 59 58 57 57 56 57 57 56
46 47 48 49 50 50 51 51 50 51 52 52 52 53 53 54 55 55 56 57 57 57 58 60 60 60 58 56 56 56 56 55 54 54 55 55 55 53
47 47 48 48 49 49 50 50 50 51 51 51 52 52 53 53 54 55 56 57 57 58 58 59 58 58 56 54 53 53 53 53 52 52 53 53 52 50
47 48 48 48 48 49 49 49 50 51 51 51 51 52 52 52 54 55 56 57 58 59 59 58 56 55 53 52 50 50 50 50 50 50 50 49 48 47
47 47 48 48 48 49 49 50 50 51 51 51 51 51 52 53 54 55 56 57 58 57 57 55 54 53 52 50 49 48 48 48 48 48 47 46 45 45
47 48 48 49 49 49 49 50 50 50 50 51 51 51 52 53 53 54 55 55 55 54 53 52 51 50 49 48 47 47 47 47 46 46 45 44 44 43
48 48 48 49 49 49 49 49 49 50 50 50 51 51 52 52 52 53 54 53 52 50 49 48 48 48 47 46 45 45 45 45 45 44 43 41 40 39
48 48 48 48 48 48 49 49 49 49 50 50 50 51 51 51 51 51 50 49 48 46 45 45 44 44 43 43 44 44 43 43 42 41 39 38 37 36
47 47 47 48 48 48 48 48 48 49 49 49 49 49 49 49 48 47 46 45 44 42 41 41 41 41 41 40 40 41 41 40 39 37 36 35 34 33
47 47 47 47 47 47 47 47 47 48 48 48 47 47 46 45 44 43 42 41 40 39 39 38 38 38 38 37 37 37 38 36 35 34 34 33 32 32
45 45 45 45 45 45 46 46 46 45 45 45 44 43 42 41 40 39 38 38 37 37 36 36 35 35 35 35 35 34 34 34 33 33 32 31 30 30
42 42 42 42 43 43 43 44 44 43 43 42 41 40 39 38 37 37 36 36 35 35 34 33 33 33 33 34 33 33 32 32 31 30 29 29 29 27
40 40 40 40 41 41 41 41 41 40 40 39 37 37 36 36 36 35 34 34 33 32 32 31 32 32 32 32 31 30 30 29 28 27 27 27 26 24
Wind_Direction
261 261 261 262 263 265 265 265 266 268 269 270 271 273 275 274 275 276 277 278 278 279 279 280 280 281 281 282 282 282 283 283 283 282 282 282 282 281
261 262 263 265 265 265 266 267 268 270 270 271 272 273 273 275 275 276 277 278 279 279 279 280 281 281 282 282 282 283 283 283 283 283 282 281 281 281
262 262 264 265 265 265 267 268 268 270 270 272 273 273 273 274 275 276 277 278 279 279 280 280 281 281 282 282 282 283 283 283 283 283 282 282 281 281
264 265 265 266 266 266 267 268 269 270 271 272 273 273 274 274 276 277 278 279 279 280 281 281 282 282 282 282 282 283 283 283 283 283 283 283 283 283
265 266 266 267 268 269 269 269 270 272 273 274 274 275 275 276 277 278 279 280 281 281 282 282 282 282 283 283 283 284 284 284 284 284 284 284 283 283
266 267 268 268 268 269 271 271 271 272 274 275 275 275 276 277 277 278 279 280 281 282 282 282 282 283 283 284 285 285 285 285 285 286 285 285 284 284
268 268 269 269 268 269 271 272 272 273 274 275 276 276 277 277 278 278 279 280 281 282 282 282 283 283 284 285 286 286 286 286 287 287 286 286 286 285
269 268 269 269 270 270 271 272 272 273 274 275 276 277 278 278 278 279 280 281 281 281 282 283 283 284 285 286 286 287 287 288 288 287 287 287 286 286
269 269 270 270 270 271 272 273 273 274 275 276 278 278 278 278 279 279 280 280 282 283 283 285 285 286 287 287 288 288 288 288 288 288 287 287 287 286
271 271 271 271 271 272 273 274 275 276 276 277 278 279 279 279 280 280 281 281 282 284 285 286 287 287 288 289 289 289 289 288 288 288 288 287 287 287
272 272 272 272 273 273 274 274 275 276 277 278 279 279 279 280 281 281 282 282 283 285 286 287 288 288 289 290 289 289 288 288 288 288 288 288 288 287
274 273 273 274 275 275 275 275 276 277 278 279 279 280 280 281 281 282 283 284 285 286 287 288 289 289 289 289 288 287 287 287 288 288 289 289 289 288
275 274 274 275 275 276 276 276 277 278 278 279 279 280 280 281 282 282 284 285 286 287 288 289 290 290 289 288 287 286 287 287 287 288 289 289 289 288
275 274 273 274 274 275 276 277 278 278 278 279 279 280 281 281 282 283 285 287 288 289 289 289 289 289 288 287 287 286 286 287 288 288 289 289 288 287
274 274 274 274 275 276 277 277 277 278 279 279 280 280 281 281 283 284 286 287 288 289 289 289 288 288 288 288 288 287 287 287 288 289 289 289 289 288
274 275 275 275 275 276 277 277 277 278 279 280 280 281 282 283 284 285 286 287 288 288 288 287 287 287 288 288 288 288 288 288 288 288 289 289 289 288
275 275 275 276 276 276 277 277 278 279 280 281 282 283 284 285 286 287 287 287 288 287 286 286 286 287 287 288 289 289 289 289 289 290 289 289 288 288
276 276 275 276 277 277 277 278 279 280 281 282 283 284 285 286 287 287 287 287 287 286 286 286 286 286 288 289 290 291 291 291 291 290 290 289 289 288
276 276 276 277 278 278 278 279 280 280 281 282 284 285 286 286 286 287 287 286 286 285 286 286 286 287 288 290 291 292 292 292 291 291 291 290 290 288
277 277 277 278 278 278 279 280 280 281 282 283 284 285 286 286 287 287 286 286 285 285 286 286 287 288 290 291 292 293 292 291 290 290 291 291 291 290
277 277 278 278 278 279 280 280 281 281 282 283 284 284 285 285 286 286 286 285 285 286 286 286 287 288 290 292 293 293 292 291 291 291 292 291 291 291
277 278 278 279 279 280 280 280 281 281 282 282 282 282 283 285 285 286 286 286 286 287 287 286 286 288 291 292 293 293 293 293 293 292 291 290 291 291
279 280 280 280 280 281 281 281 281 281 281 281 281 282 283 284 285 286 287 287 287 287 285 285 287 289 291 293 293 293 294 294 293 292 290 291 290 289
Height
5702 5703 5703 5704 5704 5705 5705 5705 5706 5705 5705 5704 5704 5702 5701 5699 5698 5697 5695 5694 5692 5691 5689 5687 5684 5682 5680 5677 5675 5672 5670 5667 5664 5661 5659 5656 5653 5651
5691 5691 5692 5692 5692 5693 5693 5693 5693 5693 5692 5692 5691 5689 5688 5686 5685 5683 5682 5681 5679 5677 5674 5672 5670 5667 5665 5662 5659 5657 5654 5651 5648 5645 5642 5639 5636 5633
5679 5680 5680 5680 5680 5680 5680 5680 5680 5680 5680 5679 5677 5676 5675 5673 5671 5670 5668 5666 5664 5662 5660 5657 5654 5652 5649 5646 5643 5640 5637 5634 5630 5627 5624 5621 5618 5615
5667 5668 5668 5668 5668 5667 5667 5667 5667 5667 5666 5666 5664 5663 5661 5659 5658 5656 5654 5652 5649 5647 5644 5641 5639 5636 5632 5629 5626 5623 5619 5616 5612 5609 5606 5602 5599 5595
5655 5655 5655 5655 5655 5654 5654 5654 5654 5654 5653 5652 5651 5649 5647 5645 5644 5642 5639 5637 5634 5631 5628 5625 5622 5619 5615 5612 5609 5605 5601 5598 5594 5590 5586 5583 5579 5575
5642 5642 5642 5642 5642 5641 5641 5641 5640 5640 5639 5638 5637 5635 5633 5631 5629 5627 5625 5622 5619 5615 5612 5608 5605 5602 5598 5595 5591 5587 5583 5579 5575 5571 5567 5563 5559 5555
5629 5629 5629 5628 5628 5628 5628 5627 5626 5625 5624 5623 5622 5620 5618 5616 5614 5611 5609 5606 5603 5599 5596 5593 5589 5585 5581 5577 5573 5569 5565 5560 5556 5552 5547 5543 5539 5535
5616 5615 5615 5614 5614 5614 5613 5613 5612 5611 5610 5609 5607 5605 5603 5600 5598 5595 5593 5591 5589 5586 5581 5578 5573 5570 5565 5560 5556 5551 5546 5541 5536 5532 5528 5524 5519 5515
5603 5602 5601 5601 5600 5599 5599 5598 5597 5595 5594 5594 5592 5590 5587 5585 5582 5580 5577 5575 5572 5568 5564 5562 5557 5553 5548 5543 5538 5533 5528 5522 5518 5513 5509 5505 5501 5497
5590 5588 5588 5587 5586 5585 5584 5583 5582 5580 5580 5579 5577 5574 5571 5568 5566 5564 5561 5559 5557 5552 5547 5545 5541 5537 5532 5526 5519 5514 5509 5505 5500 5496 5491 5487 5483 5479
5576 5575 5574 5573 5572 5571 5570 5569 5568 5566 5564 5563 5561 5558 5556 5553 5550 5548 5545 5543 5541 5538 5531 5527 5524 5520 5516 5510 5503 5497 5492 5487 5483 5479 5474 5470 5466 5462
5562 5561 5560 5558 5557 5555 5555 5554 5553 5551 5549 5548 5546 5543 5541 5538 5534 5532 5529 5526 5523 5521 5516 5510 5507 5501 5499 5496 5488 5482 5476 5471 5467 5463 5459 5454 5450 5446
5548 5547 5545 5544 5543 5541 5540 5539 5538 5536 5535 5533 5531 5529 5526 5523 5520 5516 5513 5509 5507 5504 5499 5494 5489 5484 5480 5478 5474 5467 5461 5457 5452 5448 5443 5439 5434 5431
5535 5533 5531 5530 5528 5527 5526 5525 5523 5521 5520 5518 5516 5514 5511 5508 5504 5501 5497 5493 5490 5486 5482 5477 5472 5468 5464 5461 5458 5453 5447 5442 5438 5434 5429 5424 5420 5417
5521 5519 5517 5516 5514 5513 5511 5509 5508 5506 5505 5503 5501 5498 5495 5492 5489 5486 5482 5478 5474 5469 5465 5460 5456 5453 5448 5445 5442 5438 5433 5429 5424 5419 5415 5411 5407 5404
5506 5505 5503 5502 5500 5498 5497 5495 5493 5491 5489 5488 5485 5483 5480 5477 5474 5470 5466 5462 5459 5455 5450 5445 5441 5437 5434 5430 5427 5423 5419 5415 5411 5406 5402 5399 5395 5391
5492 5491 5489 5488 5486 5484 5482 5480 5478 5476 5474 5472 5470 5467 5465 5462 5458 5454 5450 5447 5443 5440 5436 5432 5427 5423 5420 5417 5413 5409 5405 5401 5397 5393 5389 5387 5383 5379
5478 5477 5475 5473 5471 5469 5468 5466 5464 5462 5459 5457 5455 5452 5449 5446 5443 5439 5435 5432 5429 5426 5422 5419 5415 5411 5408 5404 5401 5396 5392 5388 5385 5381 5378 5375 5373 5369
5463 5462 5460 5459 5457 5455 5453 5451 5450 5447 5444 5442 5440 5437 5434 5431 5428 5425 5421 5418 5415 5412 5409 5406 5402 5399 5396 5394 5390 5385 5381 5377 5373 5370 5367 5364 5361 5358
5449 5447 5446 5444 5442 5441 5439 5437 5435 5433 5430 5428 5425 5423 5420 5417 5414 5411 5408 5406 5403 5400 5397 5394 5391 5388 5385 5382 5379 5375 5370 5366 5363 5360 5357 5354 5351 5348
5434 5433 5431 5430 5428 5427 5425 5423 5421 5419 5416 5414 5412 5409 5407 5404 5402 5399 5397 5394 5391 5389 5386 5384 5380 5377 5374 5371 5369 5365 5360 5356 5353 5350 5347 5345 5342 5339
5421 5419 5418 5416 5415 5413 5411 5409 5407 5405 5403 5401 5399 5397 5395 5393 5390 5388 5385 5383 5381 5378 5375 5373 5370 5368 5365 5362 5358 5355 5351 5348 5344 5341 5338 5336 5333 5331
5408 5406 5405 5403 5401 5400 5398 5396 5394 5393 5391 5389 5387 5386 5384 5382 5379 5377 5375 5372 5370 5368 5365 5363 5361 5358 5355 5352 5349 5346 5342 5339 5336 5334 5331 5328 5325 5323